Location: Washington
(38.8950°N, 77.0370°W)
Time: 21:56:46
(UTC-04:00)

Amateur Radio Satellites - All Passes

Search period start: 21 August 2014 21:26
Search period end: 22 August 2014 21:26
Location: Washington, 38.8950°N, 77.0370°W

Satellite Date Start Highest point End Downlink Frequencies (MHz)
Time Altitude Azimuth
RS-15 21 Aug 21:28:28 21:35:38 20° 260° (W) 21:43:00 29.354 - 29.394 USB, Beacon 29.352 USB
STRAND 1 21 Aug 21:40:41 21:42:41 12° 300° (WNW) 21:44:41 ?
UKube-1 21 Aug 21:44:20 21:48:41 86° 76° (ENE) 21:53:03 145.840 MHz, 145.915 MHz
PCSat 21 Aug 21:46:16 21:47:25 11° 321° (NW) 21:48:34 145.825 MHz
FUNcube-1 21 Aug 22:00:19 22:03:42 25° 69° (ENE) 22:07:07 145.950 - 145.970 MHz USB
Oscar 11 21 Aug 22:01:08 22:05:25 74° 76° (ENE) 22:09:46 145.825 FM, Beacon 2401.500 USB
HO-68 21 Aug 22:05:01 22:11:48 46° 260° (W) 22:18:38 435.675 MHz FM
Oscar 10/S400 21 Aug 22:43:19 23:09:01 67° 177° (S) 08:21:27 145.825 - 145.975 CW/USB, Beacon 145.810 USB
ISS 21 Aug 22:48:13 22:49:06 11° 232° (SW) 22:49:59 145.800 FM
FUNcube-1 21 Aug 23:36:40 23:40:02 24° 265° (W) 23:43:26 145.950 - 145.970 MHz USB
KITSAT 1 22 Aug 00:22:14 00:28:09 23° 103° (ESE) 00:34:03 435.175 FM
MaSat-1 22 Aug 00:48:10 00:52:31 32° 56° (NE) 00:56:25 437.345 MHz
AO-40 22 Aug 01:17:30 01:28:21 10° 107° (ESE) 01:38:28 Beacon 2401.320
Saudisat 1A 22 Aug 01:26:20 01:30:44 78° 120° (ESE) 01:35:09 436.775 MHz
Oscar 19 22 Aug 01:49:56 01:54:00 23° 94° (E) 01:58:01 437.125 CW, 437.150 USB
JAS-1B 22 Aug 01:57:24 01:58:58 11° 82° (E) 02:00:29 435.800 - 435.900 CW/SSB
AO-Echo 22 Aug 01:58:58 01:59:28 10° 90° (E) 01:59:58 ?
ITAMSAT 1 22 Aug 02:01:54 02:03:39 12° 90° (E) 02:05:24 435.822 SSB
Uribyol 2 22 Aug 02:13:05 02:16:24 17° 92° (E) 02:19:42 436.500 FM
KITSAT 1 22 Aug 02:14:39 02:22:43 73° 301° (WNW) 02:30:51 435.175 FM
Oscar 16 22 Aug 02:22:20 02:27:22 49° 100° (E) 02:32:23 437.025 USB, Beacon 2401.1428
MaSat-1 22 Aug 02:25:37 02:29:26 25° 257° (WSW) 02:32:51 437.345 MHz
AO-27 22 Aug 02:26:23 02:30:22 22° 94° (E) 02:34:20 436.795 MHz FM
TMSAT-1 22 Aug 02:58:04 03:00:39 14° 90° (E) 03:03:14 436.925 FM
PCSat 22 Aug 03:05:04 03:07:47 14° 42° (NE) 03:10:30 145.825 MHz
Saudisat 1A 22 Aug 03:08:34 03:10:51 14° 318° (NW) 03:13:09 436.775 MHz
Oscar 19 22 Aug 03:28:36 03:33:27 41° 290° (WNW) 03:38:17 437.125 CW, 437.150 USB
AO-Echo 22 Aug 03:34:03 03:38:46 71° 285° (WNW) 03:43:25 ?
Gurwin Techsat 1B 22 Aug 03:37:52 03:43:00 47° 99° (E) 03:48:05 435.225 FM
ITAMSAT 1 22 Aug 03:38:30 03:43:40 76° 286° (WNW) 03:48:50 435.822 SSB
JAS-1B 22 Aug 03:43:38 03:51:07 84° 104° (ESE) 03:57:21 435.800 - 435.900 CW/SSB
Uribyol 2 22 Aug 03:51:08 03:56:10 54° 288° (WNW) 04:01:12 436.500 FM
Oscar 16 22 Aug 04:02:37 04:06:20 20° 296° (WNW) 04:10:02 437.025 USB, Beacon 2401.1428
AO-27 22 Aug 04:05:10 04:10:01 41° 290° (WNW) 04:14:51 436.795 MHz FM
OPAL 22 Aug 04:07:16 04:12:01 45° 69° (ENE) 04:16:50 ?
KITSAT 1 22 Aug 04:14:04 04:19:37 20° 324° (NW) 04:25:11 435.175 FM
Sapphire 22 Aug 04:16:13 04:21:23 42° 56° (NE) 04:26:30 437.095 MHz 1200 baud AX-25 AFSK
Uosat F 22 Aug 04:17:26 04:20:06 14° 92° (E) 04:22:45 435.120 FM
TMSAT-1 22 Aug 04:35:46 04:41:02 68° 286° (WNW) 04:46:16 436.925 FM
PCSat 22 Aug 04:46:37 04:52:04 82° 62° (ENE) 04:57:29 145.825 MHz
SO-50 22 Aug 05:12:49 05:14:55 13° 108° (ESE) 05:17:02 436.795 FM
AO-7 22 Aug 05:14:55 05:23:03 56° 103° (ESE) 05:31:06 29.400 - 29.500 MHz
Gurwin Techsat 1B 22 Aug 05:18:41 05:22:36 21° 295° (WNW) 05:26:30 435.225 FM
JAS-1B 22 Aug 05:36:01 05:40:27 17° 307° (NW) 05:44:30 435.800 - 435.900 CW/SSB
STRAND 1 22 Aug 05:38:28 05:40:25 12° 60° (ENE) 05:42:22 ?
OPAL 22 Aug 05:47:32 05:51:06 20° 265° (W) 05:54:43 ?
Uosat F 22 Aug 05:54:20 05:59:15 60° 287° (WNW) 06:04:09 435.120 FM
Sapphire 22 Aug 06:00:10 06:04:32 25° 253° (WSW) 06:08:53 437.095 MHz 1200 baud AX-25 AFSK
JAS-2 22 Aug 06:05:14 06:08:15 15° 92° (E) 06:11:19 435.800 - 435.900 CW/SSB, 435.910 FM
PCSat 22 Aug 06:32:45 06:34:42 12° 258° (WSW) 06:36:39 145.825 MHz
SO-50 22 Aug 06:50:30 06:54:54 60° 304° (NW) 06:59:26 436.795 FM
Hamsat 22 Aug 06:54:25 06:58:45 59° 100° (E) 07:03:01 145.90 MHz
AO-7 22 Aug 07:08:19 07:15:25 33° 301° (WNW) 07:22:30 29.400 - 29.500 MHz
STRAND 1 22 Aug 07:13:47 07:18:54 81° 257° (WSW) 07:24:02 ?
RS-15 22 Aug 07:31:04 07:35:39 13° 97° (E) 07:40:10 29.354 - 29.394 USB, Beacon 29.352 USB
JAS-2 22 Aug 07:48:42 07:53:44 54° 287° (WNW) 07:58:54 435.800 - 435.900 CW/SSB, 435.910 FM
UOSAT-12 22 Aug 08:02:58 08:07:28 58° 117° (ESE) 08:12:04 437.025 FM, 437.400 FM
SO-67 22 Aug 08:03:02 08:06:26 50° 99° (E) 08:09:47 435.3500 MHz FM
KITSAT 1 22 Aug 08:15:43 08:19:19 13° 27° (NNE) 08:22:55 435.175 FM
Hamsat 22 Aug 08:32:22 08:34:10 12° 296° (WNW) 08:35:58 145.90 MHz
HO-68 22 Aug 09:33:52 09:40:24 37° 98° (E) 09:46:54 435.675 MHz FM
RS-15 22 Aug 09:34:53 09:45:56 72° 116° (ESE) 09:56:46 29.354 - 29.394 USB, Beacon 29.352 USB
UKube-1 22 Aug 09:35:12 09:37:51 16° 93° (E) 09:40:29 145.840 MHz, 145.915 MHz
UOSAT-12 22 Aug 09:44:42 09:47:59 19° 316° (NW) 09:51:19 437.025 FM, 437.400 FM
Oscar 11 22 Aug 09:51:28 09:53:58 15° 92° (E) 09:56:27 145.825 FM, Beacon 2401.500 USB
Saudisat 1A 22 Aug 09:54:22 09:58:35 42° 54° (NE) 10:02:46 436.775 MHz
KITSAT 1 22 Aug 10:09:25 10:17:08 46° 52° (NE) 10:24:46 435.175 FM
UKube-1 22 Aug 11:10:08 11:14:14 42° 288° (WNW) 11:18:18 145.840 MHz, 145.915 MHz
HO-68 22 Aug 11:21:31 11:28:04 41° 295° (WNW) 11:34:36 435.675 MHz FM
FUNcube-1 22 Aug 11:25:39 11:30:05 67° 101° (E) 11:34:35 145.950 - 145.970 MHz USB
Oscar 11 22 Aug 11:26:12 11:30:22 45° 287° (WNW) 11:34:31 145.825 FM, Beacon 2401.500 USB
Saudisat 1A 22 Aug 11:34:47 11:37:50 19° 250° (WSW) 11:40:52 436.775 MHz
RS-15 22 Aug 11:49:21 11:59:10 36° 320° (NW) 12:08:58 29.354 - 29.394 USB, Beacon 29.352 USB
KITSAT 1 22 Aug 12:05:02 12:12:25 41° 251° (WSW) 12:19:46 435.175 FM
JAS-1B 22 Aug 12:37:49 12:43:26 17° 53° (NE) 12:48:50 435.800 - 435.900 CW/SSB
FUNcube-1 22 Aug 13:04:23 13:05:56 12° 296° (WNW) 13:07:30 145.950 - 145.970 MHz USB
Oscar 19 22 Aug 13:05:38 13:10:01 29° 68° (ENE) 13:14:26 437.125 CW, 437.150 USB
AO-Echo 22 Aug 13:09:21 13:12:13 15° 63° (ENE) 13:15:04 ?
ITAMSAT 1 22 Aug 13:18:09 13:21:29 18° 63° (ENE) 13:24:50 435.822 SSB
Uribyol 2 22 Aug 13:29:43 13:33:45 24° 66° (ENE) 13:37:48 436.500 FM
Oscar 16 22 Aug 13:38:02 13:43:06 62° 73° (ENE) 13:48:12 437.025 USB, Beacon 2401.1428
AO-27 22 Aug 13:43:18 13:47:47 31° 68° (ENE) 13:52:16 436.795 MHz FM
SO-50 22 Aug 13:44:19 13:46:36 13° 40° (NE) 13:48:53 436.795 FM
ISS 22 Aug 13:51:04 13:54:15 46° 137° (SE) 13:57:28 145.800 FM
RS-15 22 Aug 14:09:45 14:16:14 17° 354° (N) 14:22:45 29.354 - 29.394 USB, Beacon 29.352 USB
TMSAT-1 22 Aug 14:17:18 14:21:06 20° 64° (ENE) 14:24:54 436.925 FM
JAS-1B 22 Aug 14:22:35 14:32:23 69° 71° (ENE) 14:41:43 435.800 - 435.900 CW/SSB
AO-7 22 Aug 14:25:10 14:29:11 15° 48° (NE) 14:33:12 29.400 - 29.500 MHz
MaSat-1 22 Aug 14:36:31 14:39:40 18° 101° (E) 14:43:01 437.345 MHz
Oscar 19 22 Aug 14:44:43 14:49:15 31° 263° (W) 14:53:50 437.125 CW, 437.150 USB
AO-Echo 22 Aug 14:45:19 14:50:28 65° 259° (WSW) 14:55:30 ?
ITAMSAT 1 22 Aug 14:55:26 15:00:31 56° 259° (W) 15:05:37 435.822 SSB
Gurwin Techsat 1B 22 Aug 14:57:41 15:02:56 66° 74° (ENE) 15:08:12 435.225 FM
Uribyol 2 22 Aug 15:08:10 15:12:58 40° 262° (W) 15:17:49 436.500 FM
Oscar 16 22 Aug 15:20:09 15:22:51 14° 269° (W) 15:25:35 437.025 USB, Beacon 2401.1428
AO-27 22 Aug 15:22:40 15:27:13 31° 263° (W) 15:31:46 436.795 MHz FM
SO-50 22 Aug 15:23:03 15:27:52 84° 59° (ENE) 15:32:43 436.795 FM
ISS 22 Aug 15:28:25 15:31:08 23° 334° (NNW) 15:33:51 145.800 FM
Uosat F 22 Aug 15:29:27 15:32:55 19° 64° (ENE) 15:36:23 435.120 FM
TMSAT-1 22 Aug 15:55:31 16:00:38 49° 260° (W) 16:05:46 436.925 FM
PANSAT 22 Aug 16:08:50 16:09:28 10° 164° (SSE) 16:10:05 not established
MaSat-1 22 Aug 16:11:41 16:16:16 50° 299° (WNW) 16:21:16 437.345 MHz
AO-7 22 Aug 16:12:11 16:20:25 67° 68° (ENE) 16:28:40 29.400 - 29.500 MHz
JAS-1B 22 Aug 16:14:55 16:23:13 30° 267° (W) 16:31:20 435.800 - 435.900 CW/SSB
OPAL 22 Aug 16:20:10 16:22:36 13° 93° (E) 16:25:02 ?
RS-15 22 Aug 16:25:32 16:34:16 26° 30° (NNE) 16:43:08 29.354 - 29.394 USB, Beacon 29.352 USB
UOSAT-12 22 Aug 16:33:53 16:38:16 36° 52° (NE) 16:42:35 437.025 FM, 437.400 FM
Gurwin Techsat 1B 22 Aug 16:40:36 16:43:21 14° 269° (W) 16:46:06 435.225 FM
Uosat F 22 Aug 17:06:28 17:11:19 49° 260° (W) 17:16:11 435.120 FM
SO-50 22 Aug 17:07:06 17:07:45 10° 254° (WSW) 17:08:24 436.795 FM
PANSAT 22 Aug 17:46:25 17:48:56 17° 176° (S) 17:51:28 not established
Hamsat 22 Aug 17:46:38 17:50:31 35° 72° (ENE) 17:54:27 145.90 MHz
PCSat 22 Aug 17:47:50 17:49:39 12° 102° (ESE) 17:51:28 145.825 MHz
OPAL 22 Aug 17:56:44 18:01:55 70° 288° (WNW) 18:07:06 ?
JAS-2 22 Aug 17:58:25 18:04:56 54° 72° (ENE) 18:10:43 435.800 - 435.900 CW/SSB, 435.910 FM
AO-7 22 Aug 18:07:08 18:13:42 26° 265° (W) 18:20:19 29.400 - 29.500 MHz
UOSAT-12 22 Aug 18:14:24 18:18:14 25° 248° (WSW) 18:22:01 437.025 FM, 437.400 FM
SO-67 22 Aug 18:36:15 18:38:13 15° 68° (ENE) 18:40:12 435.3500 MHz FM
RS-15 22 Aug 18:37:40 18:48:48 76° 57° (ENE) 19:00:21 29.354 - 29.394 USB, Beacon 29.352 USB
ISS 22 Aug 18:45:23 18:46:49 12° 14° (NNE) 18:48:15 145.800 FM
Sapphire 22 Aug 18:56:40 19:01:51 50° 112° (ESE) 19:07:04 437.095 MHz 1200 baud AX-25 AFSK
Hamsat 22 Aug 19:23:39 19:26:35 18° 267° (W) 19:29:33 145.90 MHz
STRAND 1 22 Aug 19:25:55 19:30:38 37° 98° (E) 19:35:19 ?
PANSAT 22 Aug 19:26:18 19:28:29 15° 189° (S) 19:30:39 not established
PCSat 22 Aug 19:26:52 19:32:16 83° 298° (WNW) 19:37:44 145.825 MHz
JAS-2 22 Aug 19:45:01 19:50:09 23° 265° (W) 19:54:53 435.800 - 435.900 CW/SSB, 435.910 FM
HO-68 22 Aug 20:02:04 20:07:40 26° 60° (ENE) 20:13:16 435.675 MHz FM
SO-67 22 Aug 20:07:59 20:11:01 28° 263° (W) 20:14:04 435.3500 MHz FM
ISS 22 Aug 20:21:03 20:24:15 42° 33° (NNE) 20:27:26 145.800 FM
UKube-1 22 Aug 20:30:40 20:32:39 13° 63° (ENE) 20:34:38 145.840 MHz, 145.915 MHz
Sapphire 22 Aug 20:41:12 20:45:32 24° 310° (NW) 20:49:54 437.095 MHz 1200 baud AX-25 AFSK
Oscar 11 22 Aug 20:47:15 20:48:19 11° 63° (ENE) 20:49:23 145.825 FM, Beacon 2401.500 USB
RS-15 22 Aug 20:51:18 21:00:06 28° 256° (WSW) 21:09:12 29.354 - 29.394 USB, Beacon 29.352 USB
STRAND 1 22 Aug 21:05:32 21:09:36 25° 294° (WNW) 21:13:40 ?
PCSat 22 Aug 21:13:46 21:16:32 14° 317° (NW) 21:19:19 145.825 MHz
